[[{"header":{"parameterUnit":"m.s-1","parameterCategory":1,"la1":30.2991,"la2":30.254,"lo1":-89.0895,"lo2":-89.0444,"dy":0.0017,"dx":0.0017,"nx":28,"ny":28,"refTime":"2024-07-06T03:00:00:Z","depth":0,"parameterNumber":2,"parameterNumberName":"U-component_of_WINDS"},"data":[0,0,0,0,0,0,0,0,0,0,0,0,0,0,0,0,0,0,0,0,0,0,0,0,0,0,0,0,0,0,0,0,0,0,0,0,0,0,0,0,0,0,0,0,0,0,0,0,0,0,0,0,0,0,0,0,0,0,-1.3895,-1.3894,0,-1.3735,-1.3734,-1.3732,-1.3641,-1.3641,-1.364,-1.364,-1.3477,-1.3473,-1.3469,0,0,0,0,0,0,0,0,0,0,0,0,0,-1.4121,-1.4117,-1.3896,-1.3894,-1.3892,-1.3736,-1.3734,-1.3731,-1.3641,-1.3641,-1.364,-1.364,-1.3478,-1.3473,-1.3469,0,0,0,0,0,0,0,0,0,0,0,0,0,-1.3998,-1.4116,-1.3896,-1.3828,-1.382,-1.3736,-1.3734,-1.3731,-1.3641,-1.3641,-1.364,-1.364,-1.348,-1.3474,-1.3468,-1.344,0,0,-1.3449,-1.3447,0,0,0,0,0,0,0,0,-1.4005,-1.399,-1.384,-1.3832,-1.3823,-1.3708,-1.3753,-1.3633,-1.3641,-1.3709,-1.364,-1.3639,-1.3554,-1.3542,-1.3513,-1.3432,-1.3425,-1.3449,-1.3445,-1.3443,-1.3441,0,0,0,0,0,0,0,-1.4014,-1.3996,-1.3832,-1.3838,-1.3828,-1.3804,-1.3786,-1.373,-1.3636,-1.3703,-1.3696,-1.3678,-1.355,-1.3519,-1.3508,-1.3423,-1.3449,-1.3444,-1.344,-1.3438,-1.3307,-1.3307,0,0,0,0,0,0,-1.4033,-1.4004,-1.3837,-1.3827,-1.3915,-1.3801,-1.3781,-1.3745,-1.3637,-1.362,-1.3679,-1.3675,-1.353,-1.3516,-1.3502,-1.346,-1.3443,-1.3437,-1.3433,-1.3307,-1.3307,-1.3307,0,0,0,0,0,0,-1.4038,-1.4019,-1.3844,-1.3914,-1.3889,-1.3797,-1.3758,-1.3742,-1.3712,-1.3618,-1.3601,-1.3665,-1.3529,-1.3511,-1.3455,-1.3453,-1.3434,-1.3429,-1.3307,-1.3307,-1.3307,-1.3377,0,0,0,0,0,0,-1.4045,-1.4022,-1.4011,-1.3914,-1.3886,-1.38,-1.3758,-1.374,-1.3701,-1.3694,-1.3601,-1.3585,-1.3527,-1.3465,-1.3449,-1.3444,-1.3424,-1.3306,-1.3307,-1.3307,-1.3374,-1.3379,-1.3383,0,0,0,0,0,-1.4054,-1.4038,-1.4011,-1.3991,-1.3871,-1.38,-1.3784,-1.3718,-1.3702,-1.3689,-1.3629,-1.3588,-1.3456,-1.346,-1.3442,-1.3435,-1.3306,-1.3307,-1.3307,-1.3372,-1.3378,-1.3383,0,0,0,0,0,0,-1.4138,-1.4024,-1.3993,-1.3945,-1.3883,-1.3785,-1.3768,-1.3727,-1.3669,-1.3665,-1.3585,-1.3564,-1.3515,-1.3469,-1.3476,-1.34,-1.3376,-1.3373,-1.3432,-1.3437,-1.3442,-1.3454,-1.3419,0,0,0,0,0,-1.4151,-1.4104,-1.4006,-1.3974,-1.3944,-1.3862,-1.3828,-1.3782,-1.3715,-1.3688,-1.3623,-1.3559,-1.3502,-1.3467,-1.3411,-1.3367,-1.3343,-1.3353,-1.3357,-1.3362,-1.336,-1.333,-1.3332,-1.3309,-1.3309,-1.3309,0,0,-1.4178,-1.411,-1.4085,-1.3989,-1.3935,-1.3887,-1.384,-1.3792,-1.3754,-1.3681,-1.3623,-1.3573,-1.3496,-1.3445,-1.342,-1.3406,-1.3361,-1.3362,-1.3366,-1.3362,-1.333,-1.3333,-1.3335,-1.3309,-1.3309,-1.3309,0,0,-1.4201,-1.4146,-1.4111,-1.4057,-1.3976,-1.392,-1.3912,-1.3819,-1.3783,-1.3724,-1.3666,-1.362,-1.3526,-1.3472,-1.3432,-1.3431,-1.339,-1.3415,-1.344,-1.3411,-1.3413,-1.3414,-1.3412,-1.3412,-1.3413,-1.3414,-1.3414,0,-1.4245,-1.417,-1.4098,-1.4052,-1.401,-1.394,-1.3902,-1.3854,-1.3759,-1.3731,-1.3716,-1.3593,-1.3537,-1.3471,-1.347,-1.3441,-1.3427,-1.3425,-1.3419,-1.3419,-1.3419,-1.3416,-1.3415,-1.3417,-1.3417,-1.3416,-1.3416,0,-1.4226,-1.4174,-1.4156,-1.4064,-1.402,-1.3979,-1.39,-1.3864,-1.3821,-1.3767,-1.3706,-1.3635,-1.3561,-1.3541,-1.35,-1.3468,-1.3462,-1.3434,-1.3409,-1.3426,-1.3421,-1.342,-1.3422,-1.3421,-1.342,-1.3419,0,0,-1.43,-1.4166,-1.416,-1.4116,-1.402,-1.3978,-1.3932,-1.3859,-1.3829,-1.3765,-1.3723,-1.3643,-1.3615,-1.357,-1.3521,-1.3496,-1.3496,-1.3471,-1.3468,-1.3476,-1.3454,-1.3475,-1.3475,-1.3469,-1.3468,-1.3468,-1.346,0,-1.4308,-1.4222,-1.4155,-1.4095,-1.4044,-1.3975,-1.3935,-1.387,-1.3818,-1.3767,-1.3708,-1.3652,-1.3621,-1.3593,-1.3565,-1.3503,-1.3491,-1.3502,-1.3428,-1.3426,-1.3449,-1.3473,-1.3495,-1.3492,-1.3458,-1.3458,-1.3457,0,-1.4306,-1.4243,-1.4177,-1.4082,-1.4059,-1.4024,-1.3949,-1.3902,-1.3827,-1.379,-1.3738,-1.3686,-1.3633,-1.3612,-1.3537,-1.3546,-1.3511,-1.3475,-1.3473,-1.3463,-1.3443,-1.3462,-1.3489,-1.3488,-1.3454,-1.3455,-1.3455,0,-1.4364,-1.4262,-1.4209,-1.4173,-1.4062,-1.4039,-1.3991,-1.3915,-1.3874,-1.3809,-1.3781,-1.3711,-1.3672,-1.3618,-1.3548,-1.354,-1.3479,-1.3453,-1.3445,-1.3447,-1.3435,-1.3437,-1.3456,-1.3415,-1.3415,-1.3415,-1.3415,0,-1.438,-1.4342,-1.4233,-1.42,-1.4154,-1.4076,-1.4033,-1.398,-1.3912,-1.3866,-1.3802,-1.3761,-1.3671,-1.3618,-1.3563,-1.3507,-1.3491,-1.3458,-1.3444,-1.3463,-1.3467,-1.3439,-1.3437,-1.3415,-1.3415,-1.3415,-1.3415,0,-1.4437,-1.4363,-1.4299,-1.4198,-1.4172,-1.4142,-1.4055,-1.4019,-1.3962,-1.3905,-1.3887,-1.3797,-1.3731,-1.3655,-1.3565,-1.3528,-1.3475,-1.3455,-1.3501,-1.3492,-1.3488,-1.3489,-1.3489,-1.3483,-1.3448,-1.3449,-1.3449,0,-1.4451,-1.442,-1.4314,-1.4279,-1.4233,-1.4177,-1.4134,-1.4055,-1.4013,-1.3922,-1.3897,-1.3826,-1.3765,-1.3662,-1.3588,-1.3518,-1.3494,-1.3499,-1.3484,-1.3503,-1.3492,-1.3494,-1.349,-1.3504,-1.3504,-1.3505,-1.3506,0,-1.4483,-1.4447,-1.4388,-1.4315,-1.4265,-1.4204,-1.414,-1.4114,-1.4022,-1.3978,-1.3909,-1.3861,-1.3767,-1.3697,-1.3617,-1.3566,-1.352,-1.3511,-1.3505,-1.3524,-1.3551,-1.3534,-1.3511,-1.3511,-1.3511,-1.351,-1.351,-1.351,-1.4518,-1.4486,-1.4405,-1.434,-1.4284,-1.4225,-1.4185,-1.4122,-1.4063,-1.398,-1.3937,-1.3868,-1.379,-1.3677,-1.3628,-1.3572,-1.3557,-1.3549,-1.3547,-1.3546,-1.355,-1.3561,-1.3557,-1.3557,-1.3557,-1.3557,-1.3556,0,-1.4545,-1.4489,-1.443,-1.4342,-1.429,-1.425,-1.4177,-1.4136,-1.4076,-1.4007,-1.3947,-1.3866,-1.3797,-1.3716,-1.3641,-1.3611,-1.3588,-1.3594,-1.3595,-1.3583,-1.3569,-1.3581,-1.3614,-1.3614,-1.3614,-1.3614,-1.3614,-1.3614,-1.4553,-1.4495,-1.445,-1.4362,-1.4306,-1.4238,-1.4199,-1.4143,-1.4087,-1.4,-1.3941,-1.3889,-1.3814,-1.3732,-1.3666,-1.3643,-1.3618,-1.363,-1.3602,-1.359,-1.3585,-1.358,-1.3591,-1.3626,-1.3626,-1.362,-1.362,-1.362]},{"header":{"parameterUnit":"m.s-1","parameterCategory":1,"la1":30.2991,"la2":30.254,"lo1":-89.0895,"lo2":-89.0444,"dy":0.0017,"dx":0.0017,"nx":28,"ny":28,"refTime":"2024-07-06T03:00:00:Z","depth":0,"parameterNumber":3,"parameterNumberName":"V-component_of_WINDS"},"data":[0,0,0,0,0,0,0,0,0,0,0,0,0,0,0,0,0,0,0,0,0,0,0,0,0,0,0,0,0,0,0,0,0,0,0,0,0,0,0,0,0,0,0,0,0,0,0,0,0,0,0,0,0,0,0,0,0,0,-2.5502,-2.5503,0,-2.5556,-2.5556,-2.5557,-2.5581,-2.5581,-2.5581,-2.5581,-2.563,-2.5631,-2.5632,0,0,0,0,0,0,0,0,0,0,0,0,0,-2.5414,-2.5416,-2.5502,-2.5503,-2.5504,-2.5556,-2.5556,-2.5557,-2.5581,-2.5581,-2.5581,-2.5581,-2.5629,-2.5631,-2.5633,0,0,0,0,0,0,0,0,0,0,0,0,0,-2.5458,-2.5416,-2.5502,-2.5522,-2.5524,-2.5556,-2.5556,-2.5557,-2.5581,-2.5581,-2.5581,-2.5581,-2.5629,-2.5631,-2.5633,-2.5647,0,0,-2.5639,-2.564,0,0,0,0,0,0,0,0,-2.5456,-2.5462,-2.5518,-2.5521,-2.5523,-2.5562,-2.5543,-2.5587,-2.5581,-2.5559,-2.5581,-2.5581,-2.5607,-2.5611,-2.5621,-2.5649,-2.5651,-2.5639,-2.564,-2.5641,-2.5642,0,0,0,0,0,0,0,-2.5453,-2.5459,-2.5523,-2.5519,-2.5522,-2.5526,-2.5532,-2.5552,-2.5582,-2.5561,-2.5563,-2.5569,-2.5608,-2.5619,-2.5622,-2.5652,-2.5639,-2.5641,-2.5642,-2.5643,-2.5693,-2.5693,0,0,0,0,0,0,-2.5447,-2.5457,-2.5522,-2.5525,-2.5489,-2.5528,-2.5535,-2.5549,-2.5582,-2.5588,-2.5569,-2.557,-2.5615,-2.562,-2.5624,-2.5642,-2.5641,-2.5643,-2.5644,-2.5693,-2.5693,-2.5693,0,0,0,0,0,0,-2.5445,-2.5453,-2.5519,-2.5491,-2.55,-2.5529,-2.5546,-2.555,-2.5561,-2.5589,-2.5594,-2.5575,-2.5615,-2.5621,-2.5641,-2.5644,-2.5644,-2.5646,-2.5693,-2.5693,-2.5693,-2.5679,0,0,0,0,0,0,-2.5443,-2.5452,-2.5459,-2.5491,-2.5502,-2.5538,-2.5546,-2.5552,-2.5565,-2.5567,-2.5595,-2.56,-2.5616,-2.5638,-2.5643,-2.5647,-2.5647,-2.5693,-2.5693,-2.5693,-2.5679,-2.5679,-2.5678,0,0,0,0,0,-2.544,-2.5452,-2.546,-2.5467,-2.5512,-2.5538,-2.5543,-2.5563,-2.5565,-2.5572,-2.5589,-2.5599,-2.5643,-2.564,-2.5646,-2.565,-2.5693,-2.5693,-2.5693,-2.568,-2.5679,-2.5678,0,0,0,0,0,0,-2.5417,-2.5457,-2.5465,-2.5489,-2.551,-2.5542,-2.5551,-2.5562,-2.5581,-2.5582,-2.5603,-2.5609,-2.5627,-2.5641,-2.5637,-2.5665,-2.5668,-2.567,-2.5656,-2.5656,-2.5655,-2.5651,-2.5649,0,0,0,0,0,-2.5416,-2.5436,-2.5468,-2.5485,-2.5496,-2.5521,-2.5534,-2.5547,-2.5569,-2.5577,-2.5597,-2.5616,-2.5634,-2.5645,-2.5663,-2.5681,-2.5687,-2.5687,-2.5686,-2.5686,-2.5687,-2.5696,-2.5697,-2.5694,-2.5694,-2.5694,0,0,-2.5411,-2.5435,-2.5446,-2.5482,-2.55,-2.5518,-2.5529,-2.5548,-2.5561,-2.558,-2.5601,-2.5615,-2.5638,-2.5657,-2.5666,-2.5668,-2.5689,-2.5686,-2.5685,-2.5687,-2.5697,-2.5697,-2.5697,-2.5694,-2.5694,-2.5694,0,0,-2.5414,-2.5434,-2.5451,-2.5469,-2.5497,-2.5514,-2.5517,-2.5548,-2.5559,-2.558,-2.5594,-2.5609,-2.564,-2.5656,-2.5668,-2.5675,-2.5684,-2.568,-2.5677,-2.5686,-2.5686,-2.5686,-2.5689,-2.5689,-2.5681,-2.5681,-2.5681,0,-2.5404,-2.5435,-2.5458,-2.5477,-2.5491,-2.551,-2.5526,-2.5542,-2.5573,-2.5582,-2.5584,-2.5624,-2.564,-2.5663,-2.5665,-2.5674,-2.5678,-2.5677,-2.5685,-2.5685,-2.5686,-2.5688,-2.5689,-2.568,-2.568,-2.568,-2.568,0,-2.5422,-2.5443,-2.5453,-2.5485,-2.5501,-2.5518,-2.5541,-2.5553,-2.5565,-2.5581,-2.5602,-2.5622,-2.5645,-2.5651,-2.5662,-2.5675,-2.5675,-2.5681,-2.5685,-2.5685,-2.5688,-2.5689,-2.5679,-2.5679,-2.568,-2.568,0,0,-2.5413,-2.5457,-2.546,-2.5475,-2.5507,-2.5522,-2.5539,-2.5563,-2.5573,-2.5593,-2.5608,-2.5633,-2.5639,-2.5652,-2.5664,-2.5672,-2.5676,-2.5677,-2.5678,-2.5676,-2.5691,-2.5687,-2.5688,-2.5683,-2.5683,-2.5683,-2.5689,0,-2.5419,-2.5454,-2.5474,-2.5499,-2.5518,-2.5536,-2.5551,-2.557,-2.5585,-2.5602,-2.5617,-2.5635,-2.5641,-2.5649,-2.5658,-2.5674,-2.568,-2.5674,-2.5694,-2.5695,-2.5689,-2.569,-2.5685,-2.5691,-2.5691,-2.5691,-2.5691,0,-2.5432,-2.5454,-2.5482,-2.5511,-2.552,-2.5533,-2.5557,-2.5572,-2.5594,-2.5604,-2.5619,-2.5632,-2.5649,-2.5651,-2.5674,-2.5669,-2.5679,-2.5688,-2.5688,-2.5691,-2.5693,-2.5692,-2.5693,-2.5694,-2.5693,-2.5693,-2.5692,0,-2.5422,-2.5459,-2.548,-2.5492,-2.5527,-2.5535,-2.555,-2.5572,-2.5585,-2.5604,-2.5613,-2.5633,-2.5644,-2.5658,-2.5675,-2.5675,-2.5696,-2.57,-2.5704,-2.5703,-2.5707,-2.5707,-2.5709,-2.5713,-2.5713,-2.5713,-2.5713,0,-2.5428,-2.5444,-2.5476,-2.549,-2.5507,-2.5529,-2.5546,-2.5561,-2.5581,-2.5596,-2.5611,-2.5624,-2.5646,-2.5661,-2.5674,-2.5691,-2.5695,-2.5703,-2.5706,-2.5702,-2.5701,-2.5708,-2.5708,-2.5713,-2.5713,-2.5713,-2.5713,0,-2.542,-2.5443,-2.5467,-2.5499,-2.5507,-2.5518,-2.5544,-2.5556,-2.5572,-2.559,-2.5596,-2.5619,-2.5638,-2.5657,-2.5681,-2.569,-2.5706,-2.571,-2.5699,-2.5701,-2.5704,-2.5704,-2.5712,-2.5714,-2.5716,-2.5715,-2.5715,0,-2.5423,-2.5436,-2.5469,-2.5481,-2.5496,-2.5515,-2.5529,-2.555,-2.5563,-2.5589,-2.5597,-2.5618,-2.5635,-2.5664,-2.5682,-2.57,-2.5705,-2.5707,-2.5708,-2.5703,-2.5705,-2.5704,-2.5706,-2.5706,-2.5706,-2.5706,-2.5706,0,-2.5424,-2.5435,-2.5455,-2.5479,-2.5496,-2.5515,-2.5535,-2.5543,-2.5568,-2.5581,-2.5602,-2.5615,-2.5641,-2.566,-2.5681,-2.5693,-2.5703,-2.5705,-2.5707,-2.5703,-2.5696,-2.57,-2.5698,-2.5705,-2.5705,-2.5705,-2.5705,-2.5705,-2.5422,-2.5435,-2.546,-2.5482,-2.5499,-2.5517,-2.553,-2.5548,-2.5566,-2.559,-2.5601,-2.5621,-2.5641,-2.567,-2.5682,-2.5697,-2.57,-2.5702,-2.5703,-2.5704,-2.5703,-2.5694,-2.5701,-2.5701,-2.5701,-2.5701,-2.5701,0,-2.5425,-2.5442,-2.5462,-2.549,-2.5506,-2.5516,-2.5538,-2.5551,-2.5569,-2.5588,-2.5605,-2.5628,-2.5647,-2.5666,-2.5686,-2.5694,-2.5699,-2.5698,-2.5698,-2.57,-2.5699,-2.5696,-2.5694,-2.5694,-2.5694,-2.5694,-2.5694,-2.5694,-2.5428,-2.545,-2.5463,-2.5492,-2.5509,-2.5531,-2.5542,-2.5558,-2.5574,-2.5599,-2.5616,-2.5629,-2.5648,-2.5669,-2.5686,-2.5691,-2.5697,-2.5695,-2.5701,-2.57,-2.5701,-2.5701,-2.5698,-2.5696,-2.5696,-2.5701,-2.5701,-2.5701]}]]